AFR5662 LIMF-LEZL

Flight info

Callsign AFR5662
Flight time 2h 9m
Altitude 34000
Route LAGEN1W LAGEN DCT GEKBA DCT VAMTU DCT KOLON DCT GANGU DCT PADKO DCT DIVKO DCT NILDU DCT NENDA DCT BCN DCT RODRA DCT PEXOT DCT EBROX DCT LOTOS DCT TORDU DCT DIKUT DCT SOPET DCT VLC DCT SERRA DCT ASTRO DCT POBOS DCT XEBAR DCT YES DCT BLN BLN3E
Aircraft A320/M-SDE3FGHIRWY/LB1

Departure

Time 2026-04-29 10:01
Airport Turin Airport (LIMF)

Arrival

Time 2026-04-29 12:10
Airport Seville Airport (LEZL)
Time Latitude Longitude Altitude Speed Heading
2026-04-29 09:41 45.19353 7.64471 991 ft 0 kts 232°
2026-04-29 09:52 45.19362 7.64487 995 ft 2 kts 232°
2026-04-29 09:52 45.19373 7.64506 986 ft 3 kts 207°
2026-04-29 09:53 45.19389 7.64517 993 ft 2 kts 207°
2026-04-29 09:53 45.19397 7.64523 986 ft 2 kts 195°
2026-04-29 09:53 45.19414 7.64525 993 ft 2 kts 181°
2026-04-29 09:53 45.19421 7.64526 986 ft 0 kts 186°
2026-04-29 09:56 45.19405 7.64524 993 ft 5 kts 183°
2026-04-29 09:56 45.19375 7.64573 989 ft 10 kts 106°
2026-04-29 09:56 45.19341 7.64669 986 ft 11 kts 155°
2026-04-29 09:56 45.19263 7.64669 986 ft 13 kts 182°
2026-04-29 09:57 45.19156 7.64662 986 ft 15 kts 183°
2026-04-29 09:57 45.19056 7.64655 986 ft 13 kts 182°
2026-04-29 09:57 45.18965 7.64649 989 ft 14 kts 183°
2026-04-29 09:57 45.18864 7.64644 985 ft 15 kts 181°
2026-04-29 09:58 45.18754 7.64636 987 ft 15 kts 182°
2026-04-29 09:58 45.18664 7.64640 985 ft 10 kts 161°
2026-04-29 09:58 45.18621 7.64706 988 ft 9 kts 108°
2026-04-29 09:58 45.18622 7.64823 979 ft 15 kts 84°
2026-04-29 09:59 45.18672 7.64874 989 ft 9 kts
2026-04-29 09:59 45.18685 7.64875 987 ft 0 kts
2026-04-29 10:00 45.18689 7.64875 987 ft 4 kts
2026-04-29 10:00 45.18951 7.64892 981 ft 74 kts
2026-04-29 10:00 45.19679 7.64939 980 ft 133 kts
2026-04-29 10:01 45.20757 7.65001 1149 ft 164 kts
2026-04-29 10:01 45.21903 7.65081 1823 ft 166 kts
2026-04-29 10:01 45.23080 7.65169 2480 ft 171 kts
2026-04-29 10:01 45.24275 7.65239 3124 ft 172 kts
2026-04-29 10:02 45.25472 7.65299 3694 ft 173 kts
2026-04-29 10:02 45.26558 7.66004 4152 ft 178 kts 43°
2026-04-29 10:02 45.27229 7.67563 4415 ft 198 kts 78°
2026-04-29 10:02 45.27115 7.69578 4708 ft 216 kts 105°
2026-04-29 10:03 45.26675 7.71740 4963 ft 241 kts 105°
2026-04-29 10:03 45.26186 7.74146 5278 ft 266 kts 105°
2026-04-29 10:03 45.25654 7.76777 5712 ft 286 kts 105°
2026-04-29 10:03 45.25098 7.79448 6758 ft 279 kts 110°
2026-04-29 10:04 45.24184 7.81868 7617 ft 281 kts 125°
2026-04-29 10:04 45.23050 7.84138 8426 ft 284 kts 125°
2026-04-29 10:04 45.21912 7.86403 9225 ft 288 kts 125°
2026-04-29 10:04 45.20740 7.88731 10014 ft 292 kts 125°
2026-04-29 10:05 45.19544 7.91108 10553 ft 305 kts 125°
2026-04-29 10:05 45.18263 7.93656 10777 ft 328 kts 125°
2026-04-29 10:05 45.16770 7.96221 11067 ft 346 kts 138°
2026-04-29 10:05 45.14755 7.98135 11658 ft 352 kts 154°
2026-04-29 10:06 45.12444 7.99265 12344 ft 355 kts 172°
2026-04-29 10:06 45.09986 7.99291 13040 ft 356 kts 189°
2026-04-29 10:06 45.07526 7.98687 13773 ft 359 kts 191°
2026-04-29 10:06 45.05063 7.98048 14409 ft 362 kts 191°
2026-04-29 10:07 45.02575 7.97388 15029 ft 365 kts 192°
2026-04-29 10:07 45.00069 7.96720 15645 ft 368 kts 192°
2026-04-29 10:07 44.97540 7.96050 16255 ft 371 kts 192°
2026-04-29 10:07 44.94992 7.95380 16883 ft 374 kts 192°
2026-04-29 10:08 44.92422 7.94709 17494 ft 377 kts 192°
2026-04-29 10:08 44.89830 7.94033 18080 ft 380 kts 192°
2026-04-29 10:08 44.87220 7.93359 18621 ft 383 kts 192°
2026-04-29 10:08 44.84584 7.92679 19141 ft 387 kts 192°
2026-04-29 10:09 44.81926 7.91991 19650 ft 390 kts 192°
2026-04-29 10:09 44.79280 7.91305 20158 ft 393 kts 192°
2026-04-29 10:09 44.76580 7.90602 20670 ft 396 kts 193°
2026-04-29 10:09 44.73853 7.89892 21179 ft 400 kts 193°
2026-04-29 10:10 44.71107 7.89182 21688 ft 403 kts 193°
2026-04-29 10:10 44.68344 7.88467 22181 ft 406 kts 193°
2026-04-29 10:10 44.65554 7.87747 22653 ft 409 kts 193°
2026-04-29 10:10 44.62742 7.87023 23131 ft 412 kts 193°
2026-04-29 10:11 44.59916 7.86299 23588 ft 414 kts 193°
2026-04-29 10:11 44.57071 7.85569 23979 ft 417 kts 193°
2026-04-29 10:11 44.54203 7.84831 24350 ft 420 kts 193°
2026-04-29 10:11 44.51329 7.84093 24720 ft 422 kts 193°
2026-04-29 10:12 44.48435 7.83348 25075 ft 424 kts 193°
2026-04-29 10:12 44.45519 7.82601 25417 ft 426 kts 193°
2026-04-29 10:12 44.42593 7.81852 25760 ft 429 kts 193°
2026-04-29 10:12 44.39645 7.81099 26098 ft 431 kts 193°
2026-04-29 10:13 44.36687 7.80347 26431 ft 433 kts 192°
2026-04-29 10:13 44.33719 7.79593 26758 ft 435 kts 192°
2026-04-29 10:13 44.30784 7.78781 27075 ft 436 kts 197°
2026-04-29 10:13 44.27923 7.77400 27406 ft 435 kts 206°
2026-04-29 10:14 44.25270 7.75390 27711 ft 434 kts 216°
2026-04-29 10:14 44.22891 7.72800 28009 ft 434 kts 224°
2026-04-29 10:14 44.20633 7.69982 28319 ft 436 kts 224°
2026-04-29 10:14 44.18355 7.67169 28615 ft 438 kts 223°
2026-04-29 10:15 44.16060 7.64357 28901 ft 440 kts 223°
2026-04-29 10:15 44.13855 7.61404 29173 ft 440 kts 230°
2026-04-29 10:15 44.11842 7.58188 29430 ft 442 kts 231°
2026-04-29 10:15 44.09823 7.54949 29679 ft 444 kts 231°
2026-04-29 10:16 44.07796 7.51702 29939 ft 446 kts 231°
2026-04-29 10:16 44.06446 7.49543 30086 ft 447 kts 231°
2026-04-29 10:16 44.03712 7.45178 30372 ft 449 kts 230°
2026-04-29 10:16 44.01658 7.41907 30603 ft 449 kts 230°
2026-04-29 10:17 43.99606 7.38650 30900 ft 447 kts 230°
2026-04-29 10:17 43.97561 7.35403 31199 ft 446 kts 230°
2026-04-29 10:17 43.95548 7.32201 31486 ft 445 kts 230°
2026-04-29 10:17 43.93489 7.28929 31787 ft 444 kts 230°
2026-04-29 10:18 43.91481 7.25743 32074 ft 444 kts 230°
2026-04-29 10:18 43.89454 7.22527 32373 ft 443 kts 230°
2026-04-29 10:18 43.87421 7.19304 32657 ft 442 kts 230°
2026-04-29 10:18 43.85398 7.16100 32943 ft 441 kts 230°
2026-04-29 10:19 43.83372 7.12901 33232 ft 441 kts 230°
2026-04-29 10:19 43.81345 7.09712 33522 ft 440 kts 230°
2026-04-29 10:19 43.79322 7.06534 33812 ft 439 kts 230°
2026-04-29 10:19 43.77301 7.03359 34011 ft 439 kts 230°
2026-04-29 10:20 43.73332 6.96989 34057 ft 435 kts 236°
2026-04-29 10:20 43.70649 6.90090 34057 ft 431 kts 249°
2026-04-29 10:21 43.68407 6.82401 34057 ft 431 kts 249°
2026-04-29 10:21 43.66141 6.74740 34057 ft 430 kts 249°
2026-04-29 10:22 43.63876 6.67091 34051 ft 430 kts 249°
2026-04-29 10:22 43.61605 6.59455 34045 ft 430 kts 249°
2026-04-29 10:23 43.59329 6.51808 34046 ft 430 kts 249°
2026-04-29 10:23 43.57051 6.44172 34049 ft 430 kts 249°
2026-04-29 10:24 43.54762 6.36541 34052 ft 430 kts 249°
2026-04-29 10:24 43.52474 6.28926 34053 ft 430 kts 248°
2026-04-29 10:25 43.50191 6.21361 34052 ft 430 kts 248°
2026-04-29 10:25 43.47888 6.13757 34051 ft 430 kts 248°
2026-04-29 10:26 43.45583 6.06159 34046 ft 429 kts 249°
2026-04-29 10:26 43.43283 5.98568 34033 ft 429 kts 248°
2026-04-29 10:27 43.39829 5.87208 34029 ft 429 kts 248°
2026-04-29 10:28 43.37524 5.79694 34022 ft 429 kts 248°
2026-04-29 10:28 43.35182 5.72098 34021 ft 429 kts 248°
2026-04-29 10:29 43.32873 5.64605 34023 ft 429 kts 248°
2026-04-29 10:29 43.30544 5.57062 34026 ft 429 kts 248°
2026-04-29 10:30 43.28214 5.49530 34030 ft 429 kts 248°
2026-04-29 10:30 43.25872 5.42002 34030 ft 429 kts 248°
2026-04-29 10:31 43.23524 5.34477 34032 ft 429 kts 248°
2026-04-29 10:31 43.21179 5.26961 34038 ft 428 kts 248°
2026-04-29 10:32 43.18833 5.19458 34035 ft 428 kts 248°
2026-04-29 10:32 43.16473 5.11969 34035 ft 428 kts 247°
2026-04-29 10:33 43.14106 5.04476 34038 ft 428 kts 248°
2026-04-29 10:33 43.11764 4.97039 34038 ft 428 kts 247°
2026-04-29 10:34 43.09395 4.89561 34041 ft 428 kts 247°
2026-04-29 10:34 43.07011 4.82105 34040 ft 428 kts 245°
2026-04-29 10:35 43.03654 4.75408 34043 ft 430 kts 227°
2026-04-29 10:35 42.99207 4.69923 34039 ft 431 kts 223°
2026-04-29 10:36 42.94717 4.64507 34040 ft 430 kts 223°
2026-04-29 10:36 42.90229 4.59097 34033 ft 431 kts 223°
2026-04-29 10:37 42.85741 4.53694 34033 ft 431 kts 223°
2026-04-29 10:37 42.81242 4.48299 34033 ft 431 kts 223°
2026-04-29 10:38 42.76743 4.42903 34035 ft 431 kts 223°
2026-04-29 10:38 42.72239 4.37516 34033 ft 431 kts 223°
2026-04-29 10:39 42.67763 4.32176 34029 ft 431 kts 223°
2026-04-29 10:39 42.63260 4.26813 34031 ft 431 kts 223°
2026-04-29 10:40 42.58752 4.21450 34030 ft 431 kts 222°
2026-04-29 10:40 42.54237 4.16098 34028 ft 431 kts 222°
2026-04-29 10:41 42.49724 4.10756 34027 ft 431 kts 222°
2026-04-29 10:41 42.45205 4.05415 34025 ft 431 kts 222°
2026-04-29 10:42 42.40688 4.00079 34024 ft 431 kts 222°
2026-04-29 10:42 42.36167 3.94760 34020 ft 431 kts 222°
2026-04-29 10:43 42.31667 3.89482 34020 ft 431 kts 222°
2026-04-29 10:43 42.27155 3.84149 34016 ft 431 kts 225°
2026-04-29 10:44 42.23412 3.77877 34019 ft 429 kts 235°
2026-04-29 10:44 42.20541 3.72421 34020 ft 429 kts 235°
2026-04-29 10:45 42.17072 3.65867 34018 ft 429 kts 235°
2026-04-29 10:45 42.13608 3.59314 34020 ft 429 kts 235°
2026-04-29 10:46 42.10144 3.52769 34016 ft 429 kts 235°
2026-04-29 10:46 42.06669 3.46235 34019 ft 429 kts 234°
2026-04-29 10:47 42.03197 3.39699 34015 ft 429 kts 234°
2026-04-29 10:47 41.99743 3.33209 34010 ft 429 kts 234°
2026-04-29 10:48 41.96260 3.26702 34008 ft 429 kts 234°
2026-04-29 10:48 41.92776 3.20201 34003 ft 429 kts 234°
2026-04-29 10:49 41.89292 3.13698 33998 ft 429 kts 234°
2026-04-29 10:49 41.85801 3.07210 34000 ft 429 kts 234°
2026-04-29 10:50 41.82303 3.00719 33992 ft 429 kts 234°
2026-04-29 10:50 41.78807 2.94241 33995 ft 429 kts 234°
2026-04-29 10:51 41.75298 2.87766 33996 ft 429 kts 234°
2026-04-29 10:51 41.71785 2.81302 33997 ft 429 kts 234°
2026-04-29 10:52 41.68273 2.74849 33993 ft 429 kts 233°
2026-04-29 10:52 41.64691 2.68538 33995 ft 429 kts 232°
2026-04-29 10:53 41.60998 2.62279 33991 ft 429 kts 231°
2026-04-29 10:53 41.57309 2.56024 33988 ft 429 kts 232°
2026-04-29 10:54 41.53641 2.49743 33992 ft 428 kts 232°
2026-04-29 10:54 41.49978 2.43476 33994 ft 428 kts 232°
2026-04-29 10:55 41.46302 2.37216 33992 ft 428 kts 232°
2026-04-29 10:55 41.42630 2.30972 33993 ft 428 kts 232°
2026-04-29 10:56 41.38954 2.24721 33994 ft 428 kts 232°
2026-04-29 10:56 41.35268 2.18475 33995 ft 428 kts 231°
2026-04-29 10:57 41.31578 2.12253 33998 ft 429 kts 231°
2026-04-29 10:57 41.27762 2.06150 34001 ft 429 kts 228°
2026-04-29 10:58 41.23746 2.00296 34001 ft 429 kts 227°
2026-04-29 10:58 41.19719 1.94503 34005 ft 429 kts 227°
2026-04-29 10:59 41.15707 1.88635 34000 ft 429 kts 228°
2026-04-29 10:59 41.11723 1.82735 34000 ft 429 kts 228°
2026-04-29 11:00 41.07728 1.76825 33999 ft 429 kts 228°
2026-04-29 11:00 41.03747 1.70979 33999 ft 429 kts 228°
2026-04-29 11:01 40.99737 1.65109 33997 ft 429 kts 228°
2026-04-29 11:01 40.95724 1.59247 33997 ft 429 kts 228°
2026-04-29 11:02 40.91717 1.53399 33995 ft 429 kts 228°
2026-04-29 11:02 40.87705 1.47562 33995 ft 429 kts 228°
2026-04-29 11:03 40.83720 1.41769 33989 ft 429 kts 228°
2026-04-29 11:03 40.79705 1.35953 33984 ft 429 kts 228°
2026-04-29 11:04 40.75671 1.30109 33968 ft 431 kts 228°
2026-04-29 11:04 40.71633 1.24271 33985 ft 431 kts 228°
2026-04-29 11:05 40.67588 1.18442 33989 ft 430 kts 228°
2026-04-29 11:05 40.63555 1.12624 33982 ft 430 kts 228°
2026-04-29 11:06 40.59511 1.06814 33980 ft 430 kts 228°
2026-04-29 11:06 40.55458 1.01007 33973 ft 430 kts 228°
2026-04-29 11:07 40.51404 0.95199 33970 ft 431 kts 228°
2026-04-29 11:07 40.47350 0.89409 33968 ft 431 kts 228°
2026-04-29 11:08 40.43312 0.83659 33967 ft 431 kts 228°
2026-04-29 11:08 40.39244 0.77873 33965 ft 431 kts 228°
2026-04-29 11:09 40.35161 0.72077 33966 ft 432 kts 228°
2026-04-29 11:09 40.31081 0.66304 33963 ft 432 kts 227°
2026-04-29 11:10 40.26989 0.60523 33963 ft 432 kts 227°
2026-04-29 11:10 40.22899 0.54742 33962 ft 433 kts 227°
2026-04-29 11:11 40.18796 0.48965 33961 ft 433 kts 227°
2026-04-29 11:11 40.14691 0.43196 33972 ft 433 kts 227°
2026-04-29 11:12 40.10613 0.37475 33971 ft 433 kts 227°
2026-04-29 11:12 40.06501 0.31721 33973 ft 433 kts 227°
2026-04-29 11:13 40.02380 0.25973 33971 ft 434 kts 227°
2026-04-29 11:13 39.98254 0.20213 33972 ft 434 kts 227°
2026-04-29 11:14 39.94132 0.14462 33965 ft 434 kts 227°
2026-04-29 11:14 39.90002 0.08719 33965 ft 434 kts 227°
2026-04-29 11:15 39.85883 0.03013 33961 ft 434 kts 227°
2026-04-29 11:15 39.81748 -0.02715 33967 ft 432 kts 225°
2026-04-29 11:16 39.77666 -0.08379 33942 ft 428 kts 225°
2026-04-29 11:16 39.73582 -0.14016 33939 ft 429 kts 225°
2026-04-29 11:17 39.69484 -0.19653 33952 ft 429 kts 225°
2026-04-29 11:17 39.65387 -0.25280 33963 ft 429 kts 225°
2026-04-29 11:18 39.61283 -0.30904 33957 ft 428 kts 225°
2026-04-29 11:18 39.57188 -0.36519 33978 ft 428 kts 225°
2026-04-29 11:19 39.53117 -0.42085 33987 ft 427 kts 225°
2026-04-29 11:19 39.49030 -0.47666 33985 ft 427 kts 226°
2026-04-29 11:20 39.45375 -0.53744 33988 ft 427 kts 231°
2026-04-29 11:20 39.41792 -0.59875 33985 ft 427 kts 231°
2026-04-29 11:21 39.38203 -0.65981 33986 ft 426 kts 231°
2026-04-29 11:21 39.34618 -0.72069 33988 ft 425 kts 231°
2026-04-29 11:22 39.31041 -0.78148 33984 ft 425 kts 232°
2026-04-29 11:22 39.27470 -0.84212 33977 ft 424 kts 232°
2026-04-29 11:23 39.23893 -0.90254 33980 ft 423 kts 232°
2026-04-29 11:23 39.20323 -0.96283 33980 ft 423 kts 232°
2026-04-29 11:24 39.16776 -1.02257 33973 ft 422 kts 232°
2026-04-29 11:24 39.13206 -1.08261 33976 ft 422 kts 233°
2026-04-29 11:25 39.09635 -1.14253 33968 ft 421 kts 233°
2026-04-29 11:25 39.06064 -1.20227 33960 ft 421 kts 233°
2026-04-29 11:26 39.00704 -1.29183 33960 ft 420 kts 233°
2026-04-29 11:26 38.97140 -1.35133 33963 ft 419 kts 234°
2026-04-29 11:27 38.93582 -1.41058 33960 ft 419 kts 234°
2026-04-29 11:27 38.90018 -1.46972 33962 ft 418 kts 234°
2026-04-29 11:28 38.86466 -1.52859 33962 ft 417 kts 234°
2026-04-29 11:28 38.82944 -1.58694 33964 ft 416 kts 234°
2026-04-29 11:29 38.79402 -1.64546 33964 ft 415 kts 235°
2026-04-29 11:29 38.75862 -1.70384 33962 ft 414 kts 235°
2026-04-29 11:30 38.72329 -1.76208 33967 ft 413 kts 235°
2026-04-29 11:30 38.68800 -1.82010 33970 ft 413 kts 235°
2026-04-29 11:31 38.65270 -1.87796 33969 ft 412 kts 235°
2026-04-29 11:31 38.61744 -1.93571 33971 ft 411 kts 235°
2026-04-29 11:32 38.58218 -1.99325 33972 ft 411 kts 235°
2026-04-29 11:32 38.54708 -2.05036 33975 ft 410 kts 235°
2026-04-29 11:33 38.51164 -2.10798 33967 ft 409 kts 235°
2026-04-29 11:33 38.47674 -2.16474 33968 ft 409 kts 235°
2026-04-29 11:34 38.44166 -2.22180 33964 ft 408 kts 235°
2026-04-29 11:34 38.41227 -2.26949 33960 ft 408 kts 235°
2026-04-29 11:35 38.37758 -2.32654 33955 ft 405 kts 239°
2026-04-29 11:35 38.35501 -2.39090 33954 ft 400 kts 257°
2026-04-29 11:36 38.34385 -2.46028 33950 ft 400 kts 259°
2026-04-29 11:36 38.33274 -2.52969 33950 ft 400 kts 259°
2026-04-29 11:37 38.32164 -2.59898 33951 ft 399 kts 259°
2026-04-29 11:37 38.31055 -2.66830 33953 ft 399 kts 259°
2026-04-29 11:38 38.29943 -2.73752 33953 ft 399 kts 259°
2026-04-29 11:38 38.28821 -2.80667 33950 ft 399 kts 259°
2026-04-29 11:39 38.27697 -2.87580 33949 ft 399 kts 259°
2026-04-29 11:39 38.26574 -2.94479 33951 ft 398 kts 258°
2026-04-29 11:40 38.25444 -3.01374 33951 ft 398 kts 258°
2026-04-29 11:40 38.24310 -3.08262 33946 ft 398 kts 258°
2026-04-29 11:41 38.23177 -3.15147 33946 ft 398 kts 258°
2026-04-29 11:41 38.22041 -3.22029 33900 ft 398 kts 258°
2026-04-29 11:42 38.21471 -3.25473 33491 ft 398 kts 258°
2026-04-29 11:42 38.20898 -3.28929 33087 ft 399 kts 258°
2026-04-29 11:42 38.20323 -3.32385 32684 ft 400 kts 258°
2026-04-29 11:42 38.19750 -3.35806 32297 ft 401 kts 258°
2026-04-29 11:43 38.19166 -3.39279 31914 ft 402 kts 258°
2026-04-29 11:43 38.18582 -3.42756 31536 ft 402 kts 258°
2026-04-29 11:43 38.17998 -3.46229 31157 ft 400 kts 258°
2026-04-29 11:43 38.17416 -3.49674 30788 ft 398 kts 258°
2026-04-29 11:44 38.16835 -3.53104 30431 ft 396 kts 258°
2026-04-29 11:44 38.16257 -3.56513 30066 ft 394 kts 258°
2026-04-29 11:44 38.15683 -3.59905 29654 ft 391 kts 258°
2026-04-29 11:44 38.15105 -3.63278 29233 ft 390 kts 257°
2026-04-29 11:45 38.14467 -3.66622 28813 ft 388 kts 256°
2026-04-29 11:45 38.13775 -3.69926 28409 ft 386 kts 255°
2026-04-29 11:45 38.13058 -3.73203 28002 ft 385 kts 255°
2026-04-29 11:45 38.12337 -3.76469 27607 ft 383 kts 255°
2026-04-29 11:46 38.11622 -3.79722 27214 ft 382 kts 255°
2026-04-29 11:46 38.10920 -3.82965 26835 ft 380 kts 255°
2026-04-29 11:46 38.10230 -3.86195 26457 ft 379 kts 255°
2026-04-29 11:46 38.09552 -3.89381 26091 ft 378 kts 255°
2026-04-29 11:47 38.08861 -3.92634 25716 ft 376 kts 255°
2026-04-29 11:47 38.08180 -3.95834 25355 ft 375 kts 255°
2026-04-29 11:47 38.07509 -3.98985 24990 ft 374 kts 254°
2026-04-29 11:47 38.06827 -4.02171 24640 ft 373 kts 254°
2026-04-29 11:48 38.06148 -4.05343 24288 ft 372 kts 254°
2026-04-29 11:48 38.05471 -4.08513 23937 ft 371 kts 254°
2026-04-29 11:48 38.04793 -4.11678 23597 ft 370 kts 254°
2026-04-29 11:48 38.04116 -4.14817 23205 ft 369 kts 253°
2026-04-29 11:49 38.03437 -4.17951 22804 ft 367 kts 253°
2026-04-29 11:49 38.02762 -4.21059 22398 ft 365 kts 253°
2026-04-29 11:49 38.02090 -4.24158 22004 ft 363 kts 253°
2026-04-29 11:49 38.01424 -4.27239 21616 ft 361 kts 253°
2026-04-29 11:50 38.00764 -4.30302 21234 ft 360 kts 253°
2026-04-29 11:50 38.00103 -4.33356 20853 ft 358 kts 253°
2026-04-29 11:50 37.99444 -4.36394 20481 ft 356 kts 253°
2026-04-29 11:50 37.98788 -4.39416 20108 ft 355 kts 253°
2026-04-29 11:51 37.98130 -4.42432 19738 ft 353 kts 253°
2026-04-29 11:51 37.97482 -4.45389 19386 ft 352 kts 253°
2026-04-29 11:51 37.96828 -4.48372 19033 ft 351 kts 253°
2026-04-29 11:51 37.96169 -4.51381 18679 ft 350 kts 253°
2026-04-29 11:52 37.95529 -4.54307 18336 ft 348 kts 253°
2026-04-29 11:52 37.94883 -4.57259 17957 ft 347 kts 253°
2026-04-29 11:52 37.94238 -4.60198 17564 ft 345 kts 253°
2026-04-29 11:52 37.93593 -4.63127 17167 ft 343 kts 253°
2026-04-29 11:53 37.92954 -4.66024 16783 ft 341 kts 253°
2026-04-29 11:53 37.92318 -4.68910 16405 ft 339 kts 253°
2026-04-29 11:53 37.91687 -4.71774 16031 ft 337 kts 252°
2026-04-29 11:53 37.91055 -4.74627 15655 ft 335 kts 252°
2026-04-29 11:54 37.90425 -4.77463 15290 ft 333 kts 252°
2026-04-29 11:54 37.89801 -4.80276 14924 ft 331 kts 252°
2026-04-29 11:54 37.89179 -4.83079 14563 ft 329 kts 252°
2026-04-29 11:54 37.88568 -4.85830 14214 ft 328 kts 252°
2026-04-29 11:55 37.87953 -4.88601 13861 ft 327 kts 252°
2026-04-29 11:55 37.87336 -4.91360 13483 ft 325 kts 252°
2026-04-29 11:55 37.86722 -4.94104 13083 ft 323 kts 252°
2026-04-29 11:55 37.86112 -4.96832 12699 ft 321 kts 251°
2026-04-29 11:56 37.85508 -4.99543 12317 ft 319 kts 251°
2026-04-29 11:56 37.84905 -5.02236 11934 ft 317 kts 251°
2026-04-29 11:56 37.84305 -5.04907 11561 ft 315 kts 251°
2026-04-29 11:56 37.83710 -5.07558 11191 ft 312 kts 251°
2026-04-29 11:57 37.83118 -5.10194 10819 ft 310 kts 251°
2026-04-29 11:57 37.82539 -5.12774 10462 ft 308 kts 251°
2026-04-29 11:57 37.81956 -5.15366 10105 ft 305 kts 251°
2026-04-29 11:57 37.81376 -5.17939 9747 ft 301 kts 251°
2026-04-29 11:58 37.80812 -5.20435 9586 ft 289 kts 250°
2026-04-29 11:58 37.80274 -5.22827 9456 ft 277 kts 251°
2026-04-29 11:58 37.79758 -5.25136 9324 ft 269 kts 250°
2026-04-29 11:58 37.79248 -5.27395 9189 ft 267 kts 250°
2026-04-29 11:59 37.78735 -5.29647 8927 ft 265 kts 250°
2026-04-29 11:59 37.78224 -5.31881 8670 ft 264 kts 250°
2026-04-29 11:59 37.77713 -5.34114 8416 ft 263 kts 250°
2026-04-29 11:59 37.77197 -5.36330 8156 ft 262 kts 247°
2026-04-29 12:00 37.76437 -5.38395 7915 ft 258 kts 236°
2026-04-29 12:00 37.75364 -5.40190 7660 ft 255 kts 225°
2026-04-29 12:00 37.74056 -5.41712 7425 ft 255 kts 219°
2026-04-29 12:00 37.72725 -5.43200 7169 ft 256 kts 220°
2026-04-29 12:01 37.71399 -5.44689 6926 ft 255 kts 220°
2026-04-29 12:01 37.70077 -5.46174 6679 ft 253 kts 220°
2026-04-29 12:01 37.68764 -5.47647 6443 ft 252 kts 220°
2026-04-29 12:01 37.67449 -5.49121 6196 ft 253 kts 220°
2026-04-29 12:02 37.66140 -5.50588 6020 ft 251 kts 221°
2026-04-29 12:02 37.64826 -5.52033 5975 ft 251 kts 219°
2026-04-29 12:02 37.63467 -5.53412 5982 ft 252 kts 217°
2026-04-29 12:02 37.62070 -5.54777 5987 ft 253 kts 217°
2026-04-29 12:03 37.60695 -5.56106 5974 ft 253 kts 217°
2026-04-29 12:03 37.59299 -5.57456 5718 ft 250 kts 217°
2026-04-29 12:03 37.57951 -5.58765 5463 ft 242 kts 217°
2026-04-29 12:03 37.56642 -5.60042 5214 ft 235 kts 217°
2026-04-29 12:04 37.55366 -5.61290 4966 ft 228 kts 217°
2026-04-29 12:04 37.54131 -5.62501 4733 ft 222 kts 217°
2026-04-29 12:04 37.52926 -5.63684 4477 ft 217 kts 217°
2026-04-29 12:04 37.51749 -5.64837 4226 ft 213 kts 217°
2026-04-29 12:05 37.50577 -5.65983 3973 ft 213 kts 217°
2026-04-29 12:05 37.49413 -5.67123 3731 ft 211 kts 217°
2026-04-29 12:05 37.48259 -5.68254 3478 ft 209 kts 217°
2026-04-29 12:05 37.47116 -5.69371 3223 ft 206 kts 218°
2026-04-29 12:06 37.46001 -5.70460 2974 ft 198 kts 218°
2026-04-29 12:06 37.44937 -5.71498 2718 ft 188 kts 218°
2026-04-29 12:06 37.43920 -5.72490 2484 ft 184 kts 218°
2026-04-29 12:06 37.42928 -5.73458 2254 ft 176 kts 217°
2026-04-29 12:07 37.42148 -5.74596 2044 ft 169 kts 240°
2026-04-29 12:07 37.41835 -5.75949 1894 ft 156 kts 262°
2026-04-29 12:07 37.41828 -5.77239 1752 ft 141 kts 265°
2026-04-29 12:07 37.41824 -5.78463 1562 ft 138 kts 265°
2026-04-29 12:08 37.41821 -5.79643 1380 ft 134 kts 266°
2026-04-29 12:08 37.41818 -5.80794 1206 ft 134 kts 263°
2026-04-29 12:08 37.41815 -5.81981 1027 ft 133 kts 263°
2026-04-29 12:08 37.41812 -5.83132 839 ft 133 kts 264°
2026-04-29 12:09 37.41814 -5.84310 676 ft 134 kts 265°
2026-04-29 12:09 37.41815 -5.85476 493 ft 132 kts 265°
2026-04-29 12:09 37.41805 -5.86646 284 ft 133 kts 265°
2026-04-29 12:09 37.41801 -5.87813 118 ft 131 kts 266°
2026-04-29 12:10 37.41795 -5.88776 104 ft 85 kts 270°
2026-04-29 12:10 37.41793 -5.89315 100 ft 45 kts 270°
2026-04-29 12:10 37.41793 -5.89642 98 ft 26 kts 270°
2026-04-29 12:10 37.41816 -5.89767 98 ft 13 kts 306°
2026-04-29 12:11 37.41890 -5.89825 98 ft 13 kts 337°
2026-04-29 12:11 37.41966 -5.89865 97 ft 5 kts 337°
2026-04-29 12:11 37.41981 -5.89893 96 ft 4 kts 285°
2026-04-29 12:11 37.41982 -5.89927 96 ft 6 kts 268°
2026-04-29 12:12 37.41980 -5.89994 96 ft 12 kts 269°
2026-04-29 12:12 37.41995 -5.90093 97 ft 11 kts 323°
2026-04-29 12:12 37.42051 -5.90066 95 ft 9 kts 74°
2026-04-29 12:12 37.42081 -5.89984 94 ft 13 kts 42°
2026-04-29 12:13 37.42127 -5.89931 94 ft 5 kts 32°
2026-04-29 12:13 37.42153 -5.89939 94 ft 4 kts 323°
2026-04-29 12:13 37.42173 -5.89966 94 ft 6 kts 314°
2026-04-29 12:13 37.42186 -5.89984 94 ft 0 kts 314°